Weather in Simbukhovo

Russia / Nizhny Novgorod Oblast'     54°31′56″N   44°58′02″E
temp.,
°C
wind,
m/s
gust,
m/s
humid.,
%
clouds,
%
prec.,
mm/h
press.,
hPa
HPBL,
m
6 may, thu
thu600:00+7sw31182100 0.0 1013270
03:00+6sw3118551 0.0 1013240
06:00+8sw4118370 0.0 1014287
09:00+14sw5967100 0.0 1015555
12:00+16ssw81057100 0.0 10141442
15:00+16ssw71058100 0.0 10141623
18:00+15ssw61164100 0.0 1013614
21:00+12s51373100 0.0 1014359
7 may, fri
fri700:00+10s51378100 0.0 1013318
03:00+9s51478100 0.0 1013330
06:00+10s61471100 0.0 1013395
09:00+11s51174100 0.0 1013511
12:00+15ssw61063100 0.4 10131319
15:00+9nw5683100 1.8 1016494
18:00+8nw2490100 0.3 1017264
21:00+6e0092100 0.3 101810
8 may, sat
sat800:00+6ese00900 0.0 101810
03:00+5ne11900 0.0 101810
06:00+6ene24885 0.0 1017141
09:00+12sse357529 0.0 1016708
12:00+15s6866100 0.1 10141395
15:00+17ssw6952100 0.1 10121585
18:00+15s51064100 0.0 1011449
21:00+12sse61570100 0.0 1010332
9 may, sun
sun900:00+12s71582100 0.3 1009595
03:00+12sse51290100 1.9 1008462
06:00+9w4889100 0.1 1011473
09:00+8w5683100 0.1 1013624
12:00+9w4572100 0.1 1014800
15:00+8nw3685100 1.3 1016509
18:00+7nnw4790100 3.9 1018698
21:00+6nne4891100 6.4 1020793
10 may, mon
mon1000:00+6nne41092100 0.9 1020518
03:00+6nne51192100 1.5 1022569
06:00+5nne61392100 2.4 1024622
09:00+6ne61389100 2.6 1026579
12:00+6nne61389100 0.0 1027488
15:00+7ne61188100 0.5 1027468
18:00+9ne51085100 0.0 1027468
21:00+7nne41192100 0.0 1027247